Simultaneous Nadir Overpasses (SNOs) Predictions

Prediction of SNOs between METOP-B and TERRA Satellite Orbit:

Table of predicted SNOs for the next 14.0 days since TLE Epoch: 2/3/2024
Index Date (METOP-B) Time (METOP-B) Lat,Lon (METOP-B) SZA (METOP-B ) Date (TERRA) Time (TERRA) Lat,Lon (TERRA) SZA (TERRA ) Distance(km) Time Diff (sec)
1 02/03/2024 05:21:09 -80.39, -55.46 82.36 02/03/2024 05:22:00 -80.40, -55.39 82.34 1.36 51
2 02/03/2024 06:11:46 80.48, 112.99 97.79 02/03/2024 06:11:18 80.49, 113.16 97.79 3.19 28
3 02/05/2024 20:42:08 80.46,-104.87 96.97 02/05/2024 20:42:35 80.46,-104.98 96.97 2.01 27
4 02/05/2024 21:32:46 -80.55, 63.54 82.90 02/05/2024 21:31:55 -80.54, 63.43 82.93 2.24 51
5 02/08/2024 12:03:11 -80.47,-155.00 83.83 02/08/2024 12:03:14 -80.46,-155.12 83.85 2.51 3
6 02/11/2024 02:33:37 -80.37, -13.90 84.84 02/11/2024 02:34:33 -80.38, -13.81 84.82 1.68 56
7 02/11/2024 03:24:13 80.48, 154.79 95.33 02/11/2024 03:23:50 80.49, 154.90 95.34 2.25 23
8 02/13/2024 17:54:36 80.45, -63.23 94.41 02/13/2024 17:55:07 80.44, -63.36 94.41 2.53 31
9 02/13/2024 18:45:14 -80.54, 105.26 85.45 02/13/2024 18:44:27 -80.53, 105.16 85.47 1.77 47
10 02/16/2024 09:15:38 -80.45,-113.44 86.48 02/16/2024 09:15:44 -80.45,-113.53 86.49 1.78 6



Historial Predications of SNOs between METOP-B and TERRA
